Weather History for Midland, MI

Change the Weather History Date:

Saturday, April 5, 2014

  Actual Average (KMBS) Record (KMBS)
Temperature  
Mean Temperature 38 °F 42 °F  
Max Temperature 46 °F 51 °F 75 °F (2005)
Min Temperature 28 °F 32 °F 21 °F (2004)
Degree Days  
Heating Degree Days 28    
Month to date heating degree days  
Since 1 July heating degree days  
Cooling Degree Days 0    
Month to date cooling degree days  
Year to date cooling degree days  
Moisture  
Dew Point 20 °F    
Average Humidity 55    
Maximum Humidity 75    
Minimum Humidity 29    
Precipitation  
Precipitation 0.00 in 0.08 in 0.37 in (1997)
Month to date precipitation 0.42  
Year to date precipitation 5.80  
Snow  
Snow 0.00 in - - ()
Month to date snowfall  
Since 1 July snowfall  
Snow Depth -    
Sea Level Pressure  
Sea Level Pressure 30.01 in    
Wind  
Wind Speed 13 mph (WNW)    
Max Wind Speed 22 mph    
Max Gust Speed 30 mph    
Visibility 10 miles    
Events      
T = Trace of Precipitation, MM = Missing Value Source: NWS Daily Summary

Daily Weather History Graph

Daily Weather History Graph

Search for Another Location

Airport:

Trip Planner

Search our weather history database for the weather conditions in past years. The results will help you decide how hot, cold, wet, or windy it might be!

Date:

Astronomy

Apr. 05, 2014 Rise Set
Actual Time 7:11 AM EDT 8:08 PM EDT
Civil Twilight 6:42 AM EDT 8:37 PM EDT
Nautical Twilight 6:07 AM EDT 9:12 PM EDT
Astronomical Twilight 5:31 AM EDT 9:49 PM EDT
Moon 11:11 AM EDT (4/5) 1:24 AM EDT (4/5)
Length of Visible Light 13h 55m
Length of Day
12h 57m
Waxing Crescent, 34% of the Moon is Illuminated
Apr 5
Waxing Crescent
Apr 7
First Quarter
Apr 15
Full
Apr 22
Last Quarter
Apr 29
New

Hourly Weather History & Observations

Time (EDT) Temp. Windchill Dew Point Humidity Pressure Visibility Wind Dir Wind Speed Gust Speed Precip Events Conditions
12:13 AM 34.3 °F 25.9 °F 26.6 °F 73% 29.67 in 10.0 mi WNW 11.5 mph 23.0 mph N/A   Overcast
12:33 AM 34.0 °F 25.0 °F 26.2 °F 73% 29.68 in 10.0 mi West 12.7 mph 24.2 mph N/A   Overcast
12:54 AM 33.8 °F 22.8 °F 24.8 °F 70% 29.69 in 10.0 mi West 18.4 mph 26.5 mph N/A   Overcast
1:13 AM 33.4 °F 24.8 °F 24.4 °F 70% 29.71 in 10.0 mi West 11.5 mph 21.9 mph N/A   Overcast
1:33 AM 33.1 °F 21.9 °F 22.8 °F 66% 29.72 in 10.0 mi WNW 18.4 mph 27.6 mph N/A   Overcast
1:54 AM 32.5 °F 21.9 °F 22.6 °F 67% 29.74 in 10.0 mi West 16.1 mph 23.0 mph N/A   Overcast
2:13 AM 32.0 °F 21.2 °F 21.9 °F 66% 29.75 in 10.0 mi WNW 16.1 mph 29.9 mph N/A   Overcast
2:33 AM 32.0 °F 21.2 °F 21.9 °F 66% 29.76 in 10.0 mi West 16.1 mph 24.2 mph N/A   Overcast
2:53 AM 31.5 °F 18.8 °F 20.8 °F 65% 29.78 in 10.0 mi WNW 21.9 mph 28.8 mph N/A   Overcast
3:13 AM 30.9 °F 19.8 °F 19.4 °F 62% 29.80 in 10.0 mi WNW 16.1 mph 28.8 mph N/A   Overcast
3:34 AM 30.6 °F 20.7 °F 19.0 °F 62% 29.82 in 10.0 mi WNW 12.7 mph 27.6 mph N/A   Overcast
3:53 AM 30.6 °F 21.2 °F 18.7 °F 61% 29.83 in 10.0 mi WNW 11.5 mph 21.9 mph N/A   Overcast
4:13 AM 30.2 °F 19.3 °F 18.7 °F 62% 29.85 in 10.0 mi West 15.0 mph 27.6 mph N/A   Overcast
4:34 AM 30.2 °F 20.2 °F 19.4 °F 64% 29.86 in 10.0 mi West 12.7 mph 24.2 mph N/A   Overcast
4:53 AM 29.7 °F 18.2 °F 18.7 °F 64% 29.88 in 10.0 mi NW 16.1 mph 28.8 mph N/A   Overcast
5:13 AM 29.8 °F 17.0 °F 19.2 °F 65% 29.89 in 10.0 mi WNW 20.7 mph 28.8 mph N/A   Overcast
5:34 AM 29.8 °F 18.4 °F 19.9 °F 67% 29.90 in 10.0 mi WNW 16.1 mph 21.9 mph N/A   Overcast
5:53 AM 30.0 °F 19.1 °F 20.3 °F 67% 29.91 in 10.0 mi WNW 15.0 mph 24.2 mph N/A   Overcast
6:13 AM 30.2 °F 19.8 °F 20.8 °F 68% 29.92 in 10.0 mi WNW 13.8 mph 23.0 mph N/A   Overcast
6:33 AM 30.2 °F 18.9 °F 21.0 °F 69% 29.93 in 10.0 mi WNW 16.1 mph 19.6 mph N/A   Overcast
6:53 AM 30.2 °F 19.3 °F 21.2 °F 69% 29.94 in 10.0 mi WNW 15.0 mph 20.7 mph N/A   Overcast
7:13 AM 30.2 °F 18.9 °F 21.0 °F 69% 29.96 in 10.0 mi NW 16.1 mph 21.9 mph N/A   Overcast
7:34 AM 30.0 °F 20.5 °F 20.3 °F 67% 29.97 in 10.0 mi WNW 11.5 mph 19.6 mph N/A   Overcast
7:53 AM 30.2 °F 21.3 °F 19.6 °F 65% 29.98 in 10.0 mi WNW 10.4 mph 18.4 mph N/A   Scattered Clouds
8:13 AM 30.7 °F 20.0 °F 19.4 °F 63% 30.00 in 10.0 mi WNW 15.0 mph 18.4 mph N/A   Scattered Clouds
8:33 AM 30.9 °F 22.8 °F 19.2 °F 62% 30.02 in 10.0 mi WNW 9.2 mph 19.6 mph N/A   Scattered Clouds
8:49 AM 31.1 °F 20.5 °F 18.1 °F 59% 30.02 in 10.0 mi WNW 15.0 mph 23.0 mph N/A   Scattered Clouds
9:16 AM 32.0 °F 21.2 °F 17.6 °F 55% 30.04 in 10.0 mi West 16.1 mph 23.0 mph N/A   Scattered Clouds
9:36 AM 32.0 °F 21.2 °F 19.4 °F 60% 30.05 in 10.0 mi West 16.1 mph 21.9 mph N/A   Scattered Clouds
10:01 AM 32.0 °F 23.0 °F 19.4 °F 60% 30.06 in 10.0 mi West 11.5 mph 25.3 mph N/A   Scattered Clouds
10:13 AM 33.1 °F 24.9 °F 20.3 °F 59% 30.06 in 10.0 mi WNW 10.4 mph 23.0 mph N/A   Scattered Clouds
10:33 AM 33.3 °F 24.1 °F 20.5 °F 59% 30.07 in 10.0 mi West 12.7 mph 21.9 mph N/A   Mostly Cloudy
10:54 AM 34.9 °F 26.6 °F 21.4 °F 58% 30.07 in 10.0 mi WNW 11.5 mph 18.4 mph N/A   Mostly Cloudy
11:13 AM 35.6 °F 28.0 °F 21.4 °F 56% 30.07 in 10.0 mi WNW 10.4 mph 17.3 mph N/A   Scattered Clouds
11:33 AM 35.8 °F 27.3 °F 21.4 °F 56% 30.08 in 10.0 mi West 12.7 mph 23.0 mph N/A   Clear
11:54 AM 37.4 °F 28.5 °F 22.3 °F 54% 30.09 in 10.0 mi West 15.0 mph 20.7 mph N/A   Clear
12:13 PM 38.5 °F 29.9 °F 22.1 °F 52% 30.09 in 10.0 mi West 15.0 mph - N/A   Clear
12:33 PM 38.7 °F 30.9 °F 22.8 °F 53% 30.09 in 10.0 mi West 12.7 mph 19.6 mph N/A   Clear
12:53 PM 39.4 °F 32.7 °F 22.3 °F 50% 30.10 in 10.0 mi WNW 10.4 mph 21.9 mph N/A   Clear
1:13 PM 40.6 °F 32.7 °F 23.0 °F 49% 30.10 in 10.0 mi WNW 15.0 mph 21.9 mph N/A   Clear
1:33 PM 41.0 °F 33.5 °F 22.1 °F 47% 30.10 in 10.0 mi West 13.8 mph 21.9 mph N/A   Clear
1:53 PM 42.8 °F 36.6 °F 24.8 °F 49% 30.10 in 10.0 mi West 11.5 mph - N/A   Clear
2:13 PM 42.3 °F 35.5 °F 23.2 °F 47% 30.10 in 10.0 mi West 12.7 mph 23.0 mph N/A   Clear
2:33 PM 42.6 °F 35.9 °F 22.8 °F 46% 30.10 in 10.0 mi West 12.7 mph 18.4 mph N/A   Clear
2:53 PM 42.8 °F 36.6 °F 22.1 °F 44% 30.11 in 10.0 mi West 11.5 mph 23.0 mph N/A   Clear
2:54 PM 43.0 °F 36.0 °F 22.1 °F 44% 30.10 in 10.0 mi West 13.8 mph 23.0 mph N/A   Clear
3:36 PM 44.6 °F 37.8 °F 21.2 °F 39% 30.10 in 10.0 mi West 15.0 mph 21.9 mph N/A   Clear
3:56 PM 44.6 °F 37.8 °F 21.2 °F 39% 30.11 in 10.0 mi West 15.0 mph 21.9 mph N/A   Clear
4:16 PM 46.4 °F 40.4 °F 21.2 °F 37% 30.11 in 10.0 mi West 13.8 mph 20.7 mph N/A   Clear
4:36 PM 46.4 °F 41.1 °F 19.4 °F 34% 30.10 in 10.0 mi West 11.5 mph 17.3 mph N/A   Clear
4:56 PM 46.4 °F 42.4 °F 19.4 °F 34% 30.10 in 10.0 mi WNW 8.1 mph 18.4 mph N/A   Clear
5:36 PM 46.4 °F 42.4 °F 19.4 °F 34% 30.11 in 10.0 mi West 8.1 mph - N/A   Clear
5:56 PM 46.4 °F 40.7 °F 15.8 °F 29% 30.12 in 10.0 mi WNW 12.7 mph 19.6 mph N/A   Clear
6:16 PM 46.4 °F 40.7 °F 15.8 °F 29% 30.12 in 10.0 mi West 12.7 mph - N/A   Clear
6:36 PM 46.4 °F 41.9 °F 15.8 °F 29% 30.12 in 10.0 mi WNW 9.2 mph - N/A   Clear
6:56 PM 44.6 °F 38.8 °F 15.8 °F 31% 30.12 in 10.0 mi West 11.5 mph 18.4 mph N/A   Clear
7:16 PM 44.6 °F 40.2 °F 15.8 °F 31% 30.12 in 10.0 mi West 8.1 mph - N/A   Clear
7:36 PM 44.6 °F 40.2 °F 14.0 °F 29% 30.12 in 10.0 mi WSW 8.1 mph - N/A   Clear
7:56 PM 42.8 °F 38.6 °F 14.0 °F 31% 30.13 in 10.0 mi WNW 6.9 mph - N/A   Clear
8:16 PM 41.0 °F 38.0 °F 15.8 °F 36% 30.13 in 10.0 mi West 4.6 mph - N/A   Clear
8:36 PM 41.0 °F - 14.0 °F 33% 30.14 in 10.0 mi Calm Calm - N/A   Clear
8:56 PM 37.4 °F - 21.2 °F 52% 30.14 in 10.0 mi Calm Calm - N/A   Clear
9:16 PM 35.6 °F - 19.4 °F 52% 30.14 in 10.0 mi Calm Calm - N/A   Clear
9:36 PM 33.8 °F - 21.2 °F 60% 30.15 in 10.0 mi Calm Calm - N/A   Clear
9:56 PM 32.0 °F - 24.8 °F 75% 30.15 in 10.0 mi Calm Calm - N/A   Clear
10:17 PM 32.0 °F - 23.0 °F 69% 30.15 in 10.0 mi Calm Calm - N/A   Clear
10:36 PM 32.0 °F - 21.2 °F 64% 30.15 in 10.0 mi Calm Calm - N/A   Clear
10:56 PM 30.2 °F - 23.0 °F 75% 30.15 in 10.0 mi Calm Calm - N/A   Clear
11:16 PM 30.2 °F - 21.2 °F 69% 30.16 in 10.0 mi Calm Calm - N/A   Clear
11:36 PM 30.2 °F - 21.2 °F 69% 30.15 in 10.0 mi Calm Calm - N/A   Clear
11:57 PM 28.4 °F - 21.2 °F 74% 30.15 in 10.0 mi Calm Calm - N/A   Clear